Regional Weather Roundup
Issued by NWS Upton, NY

Home | Current Version | Previous Version | Text Only | Print | Product List | Glossary On
Versions: 1 2 3 4 5 6 7 8 9 10 11 12 13 14 15 16 17 18 19 20 21 22 23 24 25 26 27 28 29 30 31 32 33 34 35 36 37 38 39 40 41 42 43 44 45 46 47 48 49 50
000
ASUS41 KOKX 032304
RWROKX

REGIONAL WEATHER ROUNDUP
NATIONAL WEATHER SERVICE NEW YORK NY
700 PM EDT THU SEP 03 2015

NOTE: "FAIR" INDICATES FEW OR NO CLOUDS BELOW 12,000 FEET WITH NO
SIGNIFICANT WEATHER AND/OR OBSTRUCTIONS TO VISIBILITY.

NYZ071-072-176-178-NJZ106-104-040000-
NEW YORK CITY METRO AREA


CITY           SKY/WX    TMP DP  RH WIND       PRES   REMARKS
CENTRAL PARK   CLEAR     87  59  38 NE3       29.86R
LAGUARDIA APRT MOCLDY    89  63  41 SE6       29.82R HX  90
KENNEDY INTL   MOCLDY    83  68  60 SE7       29.84S
NEWARK/LIBERTY MOCLDY    89  63  41 SE6       29.82R HX  90
BRNX BOT. GARD   N/A     86  61  42 SE1       29.85F
TETERBORO      PTCLDY    90  58  33 NE5       29.81R
$$

NYZ177-179-078>081-040000-
LONG ISLAND NEW YORK

CITY           SKY/WX    TMP DP  RH WIND       PRES   REMARKS
FARMINGDALE    PTCLDY    82  68  62 S6        29.84S
ISLIP          MOCLDY    81  70  69 S3        29.83S
SHIRLEY        CLEAR     81  70  69 S3        29.85S
WESTHAMPTON    CLEAR     78  72  81 S3        29.86S
MONTAUK POINT    N/A     78  73  84 CALM      29.87R
$$

NYZ052-065-067-040000-
HUDSON VALLEY

CITY           SKY/WX    TMP DP  RH WIND       PRES   REMARKS
WHITE PLAINS   CLEAR     81  65  58 SE3       29.84S
NEWBURGH       PTCLDY    86  68  54 VRB5      29.87R
MONTGOMERY     PTCLDY    83  66  56 N9        29.86R
POUGHKEEPSIE   MOCLDY    87  64  46 N3        29.83S
ALBANY         MOCLDY    76  68  76 NE3       29.88R
$$

NJZ001-105-106-008-010-013-015-019>022-104-040000-
NEW JERSEY

CITY           SKY/WX    TMP DP  RH WIND       PRES   REMARKS
NEWARK/LIBERTY MOCLDY    89  63  41 SE6       29.82R HX  90
TETERBORO      PTCLDY    90  58  33 NE5       29.81R
CALDWELL       PTCLDY    87  65  47 NE3       29.83R
MORRISTOWN     PTCLDY    84  70  61 CALM      29.84R
SOMERVILLE     CLEAR     86  66  51 CALM      29.82R
SUSSEX         MOCLDY    82  71  69 CALM      29.87
ANDOVER          N/A     79  72  79 CALM      29.87R
TRENTON        CLEAR     89  62  40 N5        29.83R
MILLVILLE      CLEAR     82  71  69 E7        29.84R
ATLANTIC CITY  CLEAR     80  68  66 SE7       29.85R
WRIGHTSTOWN    CLEAR     84  69  60 E7        29.81R
TOMS RIVER     CLEAR     81  66  61 S3        29.85R
BELMAR         CLEAR     82  64  54 SE6       29.85R
$$

PAZ047>061-062-071-040000-
EASTERN PENNSYLVANIA

CITY           SKY/WX    TMP DP  RH WIND       PRES   REMARKS
PHILADELPHIA   PTCLDY    91  62  37 NE6       29.83R HX  91
ALLENTOWN      MOCLDY    79  66  64 N17       29.87R
SCRANTON       MOCLDY    78  72  81 CALM      29.90R
$$

CTZ002-004>006-009-010-012-RIZ004-006-007-MAZ004-011-015-040000-
SOUTHERN NEW ENGLAND
 IN CT

CITY           SKY/WX    TMP DP  RH WIND       PRES   REMARKS
BRADLEY INTL   CLOUDY    83  69  62 NW3       29.83S
HARTFORD       MOCLDY    86  65  49 N5        29.82F
DANBURY        PTCLDY    84  57  39 CALM      29.86S
WTRBRY/OXFORD  CLEAR     82  66  57 CALM      29.89S
BRIDGEPORT     MOCLDY    85  64  49 CALM      29.83S
MERIDEN        PTCLDY    82  64  54 CALM      29.83S
NEW HAVEN      PTCLDY    83  63  50 CALM      29.83F
CHESTER        NOT AVBL
GROTON         PTCLDY    77  73  87 SE6       29.84S
WILLIMANTIC    MOCLDY    84  68  58 SE6       29.84S

 IN RI

CITY           SKY/WX    TMP DP  RH WIND       PRES   REMARKS
PROVIDENCE     MOCLDY    80  69  69 SE3       29.85S
BLOCK ISLAND   CLEAR     75  73  94 SW8       29.86S
WESTERLY       PTCLDY    79  71  76 S5        29.85S

 IN MA

CITY           SKY/WX    TMP DP  RH WIND       PRES   REMARKS
BOSTON         CLOUDY    74  66  76 E5        29.85
WORCESTER      CLOUDY    80  64  58 S3        29.89S
WESTFIELD      CLOUDY    81  67  62 N12       29.85R
PROVINCETOWN     N/A     72  63  73 CALM      29.86S
NANTUCKET      PTCLDY    73  70  90 W5        29.86R
$$

ANZ330-335-338-340-345-350-353-355-040000-
COASTAL MARINE OBSERVATIONS


STATION/POSITION TIME  SKY/WX   TEMP    WIND        PRES    VSBY  WAVE
                                AIR SEA DIR/SP/G                  HT/PER
                 (UTC)          (F)     (DEG/KT/KT) (MB)    (MI)  (FT/S)
NY HARB ENTRANCE 2150            80 80  170/  8/  8 1010.0          1/13
4S FIRE IS       NOT AVBL
20S FIRE ISLAND  2150            77 79  190/  6/  6 1010.3          1/10
GREAT SOUTH BAY  2200            79 81  250/  6/  6   N/A
23SW MTP         2250            76 74  220/  6/  6 1010.4          2/ 7
HUDSON CANYON    NOT AVBL
KINGS POINT      2200            88 75  210/  3/  3 1009.2
EXECUTION ROCKS  2200            83     130/  4/  6   N/A
CENTRAL LI SOUND NOT AVBL
EASTERN LI SOUND 2200            76 70   60/  2/  2   N/A
ROBBINS REEF     2200            82     160/ 10/ 11 1008.7
$$


>>>>>>>>>>>>>>>>>>>>>>>>>>>> KEY <<<<<<<<<<<<<<<<<<<<<<<<<<<
>                                                          <
>     SKY/WX - SKY CONDITION/PRESENT WEATHER               <
>     TMP    - TEMPERATURE IN FAHRENHEIT                   <
>     DP     - DEWPOINT IN FAHRENHEIT                      <
>     RH     - RELATIVE HUMIDITY IN PERCENT                <
>     WIND   - DIRECTION AND SPEED IN MPH                  <
>     PRES   - MEAN SEA LEVEL PRESSURE IN INCHES OF HG     <
>     WCI    - WIND CHILL INDEX                            <
>     VSB    - VISIBILITY IN MILES                         <
>     HX     - HEAT INDEX                                  <
>     TC     - TEMPERATURE IN CELSIUS                      <
>     VRB    - VARIABLE WIND DIRECTION                     <
>                                                          <
>>>>>>>>>>>>>>>>>>>>>>>>>>>> KEY <<<<<<<<<<<<<<<<<<<<<<<<<<<




USA.gov is the U.S. government's official web portal to all federal, state and local government web resources and services.